When you browse on this site, cookies collect data to enhance your experience and personalize the content and advertising you see.
Visit our Privacy Policy to learn more. By continuing to use the site, you agree to this use of cookies and data.
  • In Norway
  • List of Countries
  • For 7 days
  • Water Temperature
  • Satellite Maps
  • Weather Map
  • Weather Widgets
  • user-avatar
    Login

    Hourly Weather As-Salt

    Today, 22 January, Tuesday

    Time Temperature Precipitation Wind Pressure Humidity
    00:00 +12°C° 0 mm 2 mps 713 mmHg 44%
    01:00 +10°C° 0 mm 2 mps 713 mmHg 44%
    02:00 +10°C° 0 mm 2 mps 712 mmHg 44%
    03:00 +10°C° 0 mm 2 mps 712 mmHg 43%
    04:00 +10°C° 0 mm 2 mps 712 mmHg 43%
    05:00 +10°C° 0 mm 2 mps 712 mmHg 42%
    06:00 +10°C° 0 mm 2 mps 712 mmHg 41%
    07:00 +12°C° 0 mm 2 mps 712 mmHg 41%
    08:00 +11°C° 0 mm 3 mps 712 mmHg 38%
    09:00 +14°C° 0 mm 2 mps 713 mmHg 35%
    10:00 +15°C° 0 mm 1 mps 713 mmHg 33%
    11:00 +16°C° 0 mm 0 mps 713 mmHg 31%
    12:00 +18°C° 0 mm 1 mps 713 mmHg 30%
    13:00 +18°C° 0 mm 2 mps 713 mmHg 29%
    14:00 +19°C° 0 mm 3 mps 713 mmHg 29%
    15:00 +17°C° 0 mm 3 mps 713 mmHg 34%
    16:00 +16°C° 0 mm 2 mps 713 mmHg 38%
    17:00 +15°C° 0 mm 2 mps 713 mmHg 43%
    18:00 +14°C° 0 mm 2 mps 713 mmHg 48%
    19:00 +13°C° 0 mm 2 mps 713 mmHg 53%
    20:00 +12°C° 0 mm 1 mps 713 mmHg 58%
    21:00 +12°C° 0 mm 1 mps 713 mmHg 62%
    22:00 +11°C° 0 mm 1 mps 713 mmHg 65%
    23:00 +11°C° 0 mm 1 mps 713 mmHg 69%

    Tomorrow, 23 January, Wednesday

    Time Temperature Precipitation Wind Pressure Humidity
    00:00 +10°C° 0 mm 1 mps 713 mmHg 72%
    01:00 +10°C° 0 mm 1 mps 713 mmHg 74%
    02:00 +10°C° 0 mm 1 mps 713 mmHg 76%
    03:00 +10°C° 0 mm 1 mps 713 mmHg 77%
    04:00 +9°C° 0 mm 1 mps 713 mmHg 79%
    05:00 +9°C° 0 mm 1 mps 712 mmHg 80%
    06:00 +10°C° 0 mm 1 mps 713 mmHg 76%
    07:00 +10°C° 0 mm 1 mps 713 mmHg 72%
    08:00 +11°C° 0 mm 1 mps 713 mmHg 68%
    09:00 +12°C° 0 mm 2 mps 713 mmHg 59%
    10:00 +14°C° 0 mm 2 mps 713 mmHg 49%
    11:00 +15°C° 0 mm 2 mps 713 mmHg 39%
    12:00 +16°C° 0 mm 2 mps 713 mmHg 36%
    13:00 +17°C° 0 mm 2 mps 712 mmHg 32%
    14:00 +18°C° 0 mm 2 mps 712 mmHg 28%
    15:00 +17°C° 0 mm 2 mps 711 mmHg 31%
    16:00 +16°C° 0 mm 2 mps 711 mmHg 34%
    17:00 +15°C° 0 mm 2 mps 711 mmHg 36%
    18:00 +15°C° 0 mm 2 mps 711 mmHg 38%
    19:00 +13°C° 0 mm 3 mps 711 mmHg 39%
    20:00 +12°C° 0 mm 3 mps 711 mmHg 41%
    21:00 +12°C° 0 mm 3 mps 711 mmHg 42%
    22:00 +12°C° 0 mm 3 mps 710 mmHg 43%
    23:00 +11°C° 0 mm 3 mps 710 mmHg 45%

    Day after tomorrow, 24 January, Thursday

    Time Temperature Precipitation Wind Pressure Humidity
    00:00 +11°C° 0 mm 3 mps 710 mmHg 45%
    01:00 +11°C° 0 mm 3 mps 710 mmHg 45%
    02:00 +10°C° 0 mm 3 mps 710 mmHg 45%
    03:00 +10°C° 0 mm 3 mps 709 mmHg 45%
    04:00 +10°C° 0 mm 3 mps 709 mmHg 44%
    05:00 +9°C° 0 mm 3 mps 709 mmHg 44%
    06:00 +10°C° 0 mm 3 mps 709 mmHg 43%
    07:00 +10°C° 0 mm 3 mps 709 mmHg 42%
    08:00 +11°C° 0 mm 3 mps 710 mmHg 42%
    09:00 +13°C° 0 mm 3 mps 710 mmHg 36%
    10:00 +16°C° 0 mm 3 mps 709 mmHg 31%
    11:00 +18°C° 0 mm 2 mps 709 mmHg 26%
    12:00 +18°C° 0 mm 2 mps 709 mmHg 24%
    13:00 +20°C° 0 mm 1 mps 709 mmHg 22%
    14:00 +21°C° 0 mm 1 mps 709 mmHg 20%
    15:00 +20°C° 0 mm 1 mps 709 mmHg 23%
    16:00 +19°C° 0 mm 1 mps 708 mmHg 25%
    17:00 +18°C° 0 mm 1 mps 708 mmHg 28%
    18:00 +16°C° 0 mm 2 mps 709 mmHg 31%
    19:00 +15°C° 0 mm 2 mps 709 mmHg 35%
    20:00 +14°C° 0 mm 2 mps 710 mmHg 38%
    21:00 +14°C° 0 mm 2 mps 710 mmHg 47%
    22:00 +13°C° 0 mm 2 mps 711 mmHg 55%
    23:00 +12°C° 0 mm 1 mps 711 mmHg 64%

    25 January, Friday

    Time Temperature Precipitation Wind Pressure Humidity
    00:00 +10°C° 0 mm 2 mps 711 mmHg 68%
    01:00 +10°C° 0 mm 2 mps 712 mmHg 72%
    02:00 +10°C° 0 mm 2 mps 712 mmHg 76%
    03:00 +9°C° 0 mm 2 mps 711 mmHg 77%
    04:00 +9°C° 0 mm 2 mps 711 mmHg 79%
    05:00 +9°C° 0 mm 1 mps 711 mmHg 80%
    06:00 +9°C° 0 mm 2 mps 711 mmHg 78%
    07:00 +9°C° 0 mm 2 mps 711 mmHg 75%
    08:00 +10°C° 0 mm 2 mps 712 mmHg 73%
    09:00 +12°C° 0 mm 2 mps 712 mmHg 64%
    10:00 +14°C° 0 mm 2 mps 712 mmHg 55%
    11:00 +16°C° 0 mm 2 mps 712 mmHg 47%
    12:00 +17°C° 0 mm 2 mps 712 mmHg 42%
    13:00 +18°C° 0 mm 2 mps 711 mmHg 37%
    14:00 +19°C° 0 mm 2 mps 711 mmHg 33%
    15:00 +19°C° 0 mm 1 mps 710 mmHg 37%
    16:00 +18°C° 0 mm 1 mps 710 mmHg 42%
    17:00 +15°C° 0 mm 0 mps 710 mmHg 46%
    18:00 +16°C° 0 mm 1 mps 710 mmHg 46%
    19:00 +15°C° 0 mm 1 mps 710 mmHg 46%
    20:00 +15°C° 0 mm 2 mps 710 mmHg 45%
    21:00 +14°C° 0 mm 2 mps 710 mmHg 46%
    22:00 +14°C° 0 mm 2 mps 710 mmHg 48%
    23:00 +13°C° 0 mm 2 mps 710 mmHg 49%

    26 January, Saturday

    Time Temperature Precipitation Wind Pressure Humidity
    00:00 +13°C° 0 mm 1 mps 709 mmHg 50%
    01:00 +12°C° 0 mm 1 mps 709 mmHg 52%
    02:00 +12°C° 0 mm 1 mps 709 mmHg 53%
    03:00 +12°C° 0 mm 1 mps 709 mmHg 54%
    04:00 +11°C° 0 mm 1 mps 709 mmHg 54%
    05:00 +11°C° 0 mm 1 mps 709 mmHg 54%
    06:00 +12°C° 0 mm 1 mps 709 mmHg 51%
    07:00 +13°C° 0 mm 1 mps 709 mmHg 48%
    08:00 +14°C° 0 mm 2 mps 710 mmHg 46%
    09:00 +16°C° 0 mm 1 mps 710 mmHg 38%
    10:00 +18°C° 0 mm 1 mps 710 mmHg 31%
    11:00 +20°C° 0 mm 1 mps 710 mmHg 24%
    12:00 +20°C° 0 mm 2 mps 710 mmHg 22%
    13:00 +21°C° 0 mm 3 mps 710 mmHg 20%
    14:00 +21°C° 0 mm 4 mps 709 mmHg 17%
    15:00 +20°C° 0 mm 3 mps 709 mmHg 21%
    16:00 +18°C° 0 mm 3 mps 709 mmHg 24%
    17:00 +17°C° 0 mm 2 mps 709 mmHg 27%
    18:00 +16°C° 0 mm 2 mps 709 mmHg 30%
    19:00 +15°C° 0 mm 2 mps 709 mmHg 33%
    20:00 +14°C° 0 mm 1 mps 710 mmHg 36%
    21:00 +13°C° 0 mm 1 mps 710 mmHg 39%
    22:00 +13°C° 0 mm 2 mps 710 mmHg 42%
    23:00 +12°C° 0 mm 2 mps 710 mmHg 45%

    27 January, Sunday

    Time Temperature Precipitation Wind Pressure Humidity
    00:00 +12°C° 0 mm 2 mps 710 mmHg 50%
    01:00 +10°C° 0 mm 2 mps 710 mmHg 55%
    02:00 +10°C° 0 mm 2 mps 710 mmHg 60%
    03:00 +9°C° 0 mm 2 mps 710 mmHg 64%
    04:00 +10°C° 0 mm 1 mps 710 mmHg 67%
    05:00 +9°C° 0 mm 1 mps 709 mmHg 71%
    06:00 +10°C° 0 mm 1 mps 710 mmHg 68%
    07:00 +11°C° 0 mm 1 mps 710 mmHg 65%
    08:00 +12°C° 0 mm 2 mps 711 mmHg 63%
    09:00 +13°C° 0 mm 2 mps 711 mmHg 51%
    10:00 +14°C° 0 mm 3 mps 711 mmHg 39%
    11:00 +17°C° 0 mm 4 mps 711 mmHg 27%
    12:00 +16°C° 0 mm 5 mps 711 mmHg 26%
    13:00 +17°C° 0 mm 6 mps 711 mmHg 24%
    14:00 +17°C° 0 mm 7 mps 710 mmHg 22%
    15:00 +16°C° 0 mm 6 mps 710 mmHg 26%
    16:00 +15°C° 0 mm 5 mps 710 mmHg 30%
    17:00 +14°C° 0 mm 4 mps 710 mmHg 34%
    18:00 +13°C° 0 mm 3 mps 711 mmHg 37%
    19:00 +13°C° 0 mm 2 mps 711 mmHg 40%
    20:00 +12°C° 0 mm 2 mps 712 mmHg 43%
    21:00 +12°C° 0 mm 2 mps 712 mmHg 44%
    22:00 +10°C° 0 mm 2 mps 712 mmHg 44%
    23:00 +10°C° 0 mm 2 mps 713 mmHg 44%
    Show more